Preview of NWS' New Version of Forecast
This preview is not operational and should not be used for support decisions.

Regional Weather Roundup (RWR)

Issued by National Weather Service (NWS)

                            
000
ASUS46 KSEW 182320
RWRWA 

WASHINGTON REGIONAL WEATHER ROUNDUP
NATIONAL WEATHER SERVICE SEATTLE WA
400 PM PDT WED SEP 18 2019

NOTE:"FAIR" INDICATES FEW OR NO CLOUDS BELOW 12,000 FEET WITH NO 
SIGNIFICANT WEATHER AND/OR OBSTRUCTIONS TO VISIBILITY.

WAZ507-509-555>559-190000-
SEATTLE, TACOMA, EVERETT, AND VICINITY
  
CITY           SKY/WX    TMP DP  RH WIND       PRES   REMARKS
EVERETT        SUNNY     64  53  67 N8        29.91R                  
BOEING FIELD   MOSUNNY   66  51  58 NW9       29.90R                  
RENTON         PTSUNNY   68  53  58 N12       29.89R                  
SEATAC AIRPORT MOSUNNY   67  51  56 N9        29.90R                  
JBLM-MCCHORD   NOT AVBL                                               
PUYALLUP       PTSUNNY   64  54  68 CALM      29.90R                  
BREMERTON      PTSUNNY   63  53  70 NE9       29.91                   
JBLM-FT LEWIS  MOSUNNY   67  59  74 W6        29.89                   
TACOMA NARROWS MOSUNNY   63  51  65 N9        29.90R                  
$$
 
WAZ001-503-506-510-514-515-190000-
NORTH INTERIOR
  
CITY           SKY/WX    TMP DP  RH WIND       PRES   REMARKS
BELLINGHAM     SUNNY     66  52  60 W7        29.91R                  
FRIDAY HARBOR  SUNNY     66  51  58 VRB6      29.93R                  
EASTSOUND      SUNNY     61  54  77 N5        29.92R                  
PORT ANGELES   SUNNY     62  50  64 E3        29.94R                  
EDIZ HOOK      FAIR      59  54  82 S3        29.93R                  
PORT TOWNSEND  FAIR      64  54  68 VRB6G15   29.92R                  
NAS WHIDBEY    PTSUNNY   63  53  70 W9        29.96R                  
ARLINGTON      CLOUDY    66  54  65 NW10      29.90R                  
BURLINGTON     SUNNY     66  54  63 NW14      29.91R                  
$$
 
WAZ020-022-039-040-504-511-512-190000-
SOUTHWEST INTERIOR
  
CITY           SKY/WX    TMP DP  RH WIND       PRES   REMARKS
SHELTON        PTSUNNY   65  53  65 E7        29.87R                  
OLYMPIA        MOSUNNY   66  52  60 E3        29.89R                  
CHEHALIS       FAIR      70  55  60 VRB7      29.89R HAZE             
KELSO          MOSUNNY   66  53  63 CALM      29.89R                  
VANCOUVER      CLOUDY    65  52  62 W5        29.87S                  
SCAPPOOSE, OR  MOSUNNY   67  53  61 CALM      29.87R                  
PORTLAND, OR   PTSUNNY   67  52  58 VRB5      29.88R                  
$$
 
WAZ021-516-517-190000-
WASHINGTON COAST
  
CITY           SKY/WX    TMP DP  RH WIND       PRES   REMARKS
FORKS          MOSUNNY   67  54  63 NW7       29.90S                  
HOQUIAM        SUNNY     63  56  78 NW10      29.91R                  
ASTORIA, OR    MOSUNNY   64  55  72 NW13      29.89R                  
$$
 
WAZ019-023-024-040-567>569-190000-
CASCADE MOUNTAINS AND COLUMBIA GORGE
  
CITY           SKY/WX    TMP DP  RH WIND       PRES   REMARKS
STAMPEDE PASS  CLOUDY    50  47  89 VRB6      29.92R                  
TROUTDALE, OR  MOSUNNY   66  51  58 N3        29.88R                  
HOOD RIVER, OR MOCLDY    64  50  59 W6        29.86S                  
THE DALLES, OR MOSUNNY   69  48  47 W12       29.83S                  
$$

WAZ026-027-041>044-520-521-190000-
EAST SLOPES
  
CITY           SKY/WX    TMP DP  RH WIND       PRES   REMARKS
OMAK           PTSUNNY   65  47  52 N14       29.89S                  
WENATCHEE      PTSUNNY   63  48  58 W6        29.87R                  
ELLENSBURG     CLOUDY    64  47  53 NE9       29.87R                  
YAKIMA         PTSUNNY   67  45  45 CALM      29.85R                  
SUNNYSIDE ARPT LGT RAIN  62  56  83 CALM      29.85R                  
YAKIMA TC      NOT AVBL                                               
$$

WAZ028-034-035-190000-
COLUMBIA BASIN
  
CITY           SKY/WX    TMP DP  RH WIND       PRES   REMARKS
EPHRATA        CLOUDY    67  47  48 NW9       29.85R                  
MOSES LAKE     PTSUNNY   69  45  41 NW7       29.85R                  
PASCO          MOSUNNY   74  44  34 E6        29.82S                  
RICHLAND ARPT  CLOUDY    74  44  34 CALM      29.82R                  
HERMISTON, OR  MOSUNNY   73  45  36 MISG      29.82S                  
$$

WAZ036>038-190000-
NORTHEAST WASHINGTON
  
CITY           SKY/WX    TMP DP  RH WIND       PRES   REMARKS
SPOKANE GEIGER PTSUNNY   57  49  74 N10       29.89R                  
SPOKANE FELTS  PTSUNNY   61  49  64 N6        29.89R                  
FAIRCHILD AFB  LGT RAIN  52  52 100 N10       29.89R FOG              
COEURDALENE,ID CLOUDY    57  50  77 NE5       29.90S                  
DEER PARK      PTSUNNY   55  52  89 NE7       29.90S                  
$$

WAZ029>033-190000-
SOUTHEAST WASHINGTON
  
CITY           SKY/WX    TMP DP  RH WIND       PRES   REMARKS
PULLMAN        CLOUDY    62  44  51 VRB5      29.89R                  
LEWISTON, ID   CLOUDY    64  46  52 W10       29.86R                  
WALLA WALLA    MOSUNNY   69  45  41 E6        29.83F                  
PENDLETON, OR  MOSUNNY   69  43  38 N8        29.84R                  
$$